OCN9ZF EDDF-LGIR

Flight info

Callsign OCN9ZF
Flight time 2h 43m
Altitude 37000
Route CINDY8S CINDY Z74 LAMPU DCT NOMBO Y161 MAH DCT VAVOR DCT RADIZ DCT PINDO DCT KEA UL607 GIVIS T514 XAVIS
Aircraft A320/M-SDE2E3FGIJ1LORWXYZ/HB1

Departure

Time 2026-05-04 05:49
Airport Frankfurt Main Airport (EDDF)

Arrival

Time 2026-05-04 08:33
Airport Heraklion International Nikos Kazantzakis Airport (LGIR)
Time Latitude Longitude Altitude Speed Heading
2026-05-04 05:14 50.04883 8.57441 362 ft 0 kts 217°
2026-05-04 05:36 50.04890 8.57449 363 ft 4 kts 218°
2026-05-04 05:36 50.04911 8.57474 360 ft 4 kts 214°
2026-05-04 05:36 50.04934 8.57493 358 ft 4 kts 181°
2026-05-04 05:37 50.04946 8.57488 356 ft 0 kts 115°
2026-05-04 05:37 50.04936 8.57523 357 ft 4 kts 114°
2026-05-04 05:37 50.04925 8.57561 359 ft 4 kts 114°
2026-05-04 05:38 50.04905 8.57630 358 ft 0 kts 114°
2026-05-04 05:40 50.04906 8.57626 360 ft 0 kts 114°
2026-05-04 05:40 50.04894 8.57667 361 ft 8 kts 114°
2026-05-04 05:40 50.04865 8.57774 361 ft 11 kts 113°
2026-05-04 05:41 50.04836 8.57868 363 ft 9 kts 125°
2026-05-04 05:41 50.04765 8.57920 360 ft 14 kts 173°
2026-05-04 05:41 50.04693 8.57838 358 ft 14 kts 249°
2026-05-04 05:41 50.04659 8.57696 358 ft 14 kts 250°
2026-05-04 05:42 50.04627 8.57558 363 ft 13 kts 250°
2026-05-04 05:42 50.04595 8.57423 359 ft 13 kts 250°
2026-05-04 05:42 50.04565 8.57294 363 ft 12 kts 249°
2026-05-04 05:42 50.04537 8.57181 363 ft 10 kts 249°
2026-05-04 05:43 50.04514 8.57086 359 ft 9 kts 249°
2026-05-04 05:43 50.04482 8.56953 364 ft 15 kts 249°
2026-05-04 05:43 50.04448 8.56811 361 ft 14 kts 249°
2026-05-04 05:45 50.04133 8.55493 357 ft 23 kts 250°
2026-05-04 05:45 50.04077 8.55256 358 ft 23 kts 249°
2026-05-04 05:47 50.03669 8.53677 343 ft 24 kts 249°
2026-05-04 05:47 50.03605 8.53422 336 ft 26 kts 250°
2026-05-04 05:47 50.03544 8.53167 334 ft 26 kts 249°
2026-05-04 05:48 50.03478 8.52897 336 ft 27 kts 249°
2026-05-04 05:48 50.03417 8.52658 332 ft 14 kts 252°
2026-05-04 05:48 50.03369 8.52593 335 ft 9 kts 178°
2026-05-04 05:48 50.03235 8.52596 335 ft 47 kts 180°
2026-05-04 05:49 50.02675 8.52604 333 ft 110 kts 179°
2026-05-04 05:49 50.01731 8.52611 332 ft 159 kts 179°
2026-05-04 05:49 50.00559 8.52628 782 ft 169 kts 180°
2026-05-04 05:49 49.99385 8.52630 1528 ft 168 kts 182°
2026-05-04 05:51 49.93858 8.64981 5361 ft 278 kts 95°
2026-05-04 05:51 49.93482 8.67942 6133 ft 282 kts 113°
2026-05-04 05:52 49.92508 8.70570 6930 ft 283 kts 133°
2026-05-04 05:52 49.91041 8.72576 7691 ft 282 kts 148°
2026-05-04 05:52 49.89436 8.74361 8505 ft 287 kts 144°
2026-05-04 05:52 49.88048 8.76643 9305 ft 295 kts 128°
2026-05-04 05:53 49.86992 8.79414 10098 ft 301 kts 122°
2026-05-04 05:54 49.78870 9.01854 14301 ft 357 kts 122°
2026-05-04 05:55 49.77643 9.05209 14927 ft 360 kts 122°
2026-05-04 05:55 49.76480 9.08603 15538 ft 365 kts 116°
2026-05-04 05:55 49.75688 9.12367 16148 ft 371 kts 106°
2026-05-04 05:55 49.74996 9.16226 16755 ft 372 kts 114°
2026-05-04 05:56 49.73863 9.19805 17361 ft 371 kts 125°
2026-05-04 05:56 49.72310 9.22970 17997 ft 370 kts 135°
2026-05-04 05:56 49.70598 9.25958 18588 ft 372 kts 135°
2026-05-04 05:56 49.68882 9.28978 19080 ft 376 kts 134°
2026-05-04 05:57 49.67152 9.32038 19578 ft 379 kts 134°
2026-05-04 05:57 49.65410 9.35121 20057 ft 383 kts 135°
2026-05-04 05:57 49.63651 9.38228 20552 ft 386 kts 135°
2026-05-04 05:57 49.61756 9.41164 21021 ft 386 kts 144°
2026-05-04 05:58 49.59565 9.43527 21485 ft 384 kts 153°
2026-05-04 05:58 49.57279 9.45605 21918 ft 388 kts 153°
2026-05-04 05:58 49.54943 9.47733 22348 ft 392 kts 153°
2026-05-04 05:58 49.52586 9.49883 22808 ft 395 kts 153°
2026-05-04 05:59 49.50214 9.52053 23262 ft 398 kts 153°
2026-05-04 05:59 49.47824 9.54241 23687 ft 401 kts 153°
2026-05-04 05:59 49.45412 9.56446 24065 ft 404 kts 153°
2026-05-04 05:59 49.42986 9.58659 24442 ft 406 kts 154°
2026-05-04 06:00 49.40540 9.60884 24826 ft 409 kts 154°
2026-05-04 06:00 49.38083 9.63108 25200 ft 411 kts 154°
2026-05-04 06:00 49.35614 9.65348 25583 ft 413 kts 153°
2026-05-04 06:00 49.33277 9.67975 25922 ft 421 kts 143°
2026-05-04 06:01 49.31869 9.70041 26150 ft 425 kts 139°
2026-05-04 06:01 49.29775 9.73257 26503 ft 427 kts 139°
2026-05-04 06:03 49.14787 9.96063 28953 ft 441 kts 139°
2026-05-04 06:03 49.12601 9.99367 29273 ft 443 kts 139°
2026-05-04 06:05 48.96800 10.22399 31109 ft 456 kts 142°
2026-05-04 06:05 48.92126 10.28910 31776 ft 455 kts 141°
2026-05-04 06:05 48.89801 10.32180 32119 ft 454 kts 141°
2026-05-04 06:06 48.87491 10.35443 32459 ft 454 kts 141°
2026-05-04 06:06 48.85175 10.38715 32790 ft 453 kts 141°
2026-05-04 06:06 48.82869 10.41977 33113 ft 453 kts 141°
2026-05-04 06:06 48.80613 10.45326 33412 ft 454 kts 139°
2026-05-04 06:07 48.78421 10.48776 33714 ft 455 kts 137°
2026-05-04 06:07 48.76267 10.52293 34006 ft 455 kts 136°
2026-05-04 06:07 48.74124 10.55838 34281 ft 455 kts 136°
2026-05-04 06:07 48.71982 10.59363 34555 ft 454 kts 136°
2026-05-04 06:08 48.69830 10.62861 34832 ft 453 kts 137°
2026-05-04 06:08 48.67671 10.66328 35092 ft 453 kts 137°
2026-05-04 06:08 48.65534 10.69730 35352 ft 452 kts 137°
2026-05-04 06:08 48.63363 10.73160 35605 ft 451 kts 137°
2026-05-04 06:09 48.61192 10.76576 35859 ft 450 kts 137°
2026-05-04 06:09 48.59022 10.79990 36100 ft 450 kts 137°
2026-05-04 06:11 48.44018 11.03843 37056 ft 445 kts 137°
2026-05-04 06:13 48.26855 11.30574 37062 ft 446 kts 131°
2026-05-04 06:14 48.15678 11.58776 37065 ft 450 kts 123°
2026-05-04 06:15 48.12529 11.66878 37051 ft 450 kts 123°
2026-05-04 06:15 48.09370 11.74965 37060 ft 450 kts 123°
2026-05-04 06:16 48.06228 11.82986 37063 ft 450 kts 123°
2026-05-04 06:16 48.03060 11.91054 37050 ft 450 kts 123°
2026-05-04 06:17 47.99892 11.99102 37046 ft 449 kts 123°
2026-05-04 06:17 47.96719 12.07125 37053 ft 449 kts 123°
2026-05-04 06:18 47.93338 12.14918 37056 ft 445 kts 133°
2026-05-04 06:20 47.74818 12.38731 37049 ft 440 kts 143°
2026-05-04 06:21 47.63049 12.53337 37058 ft 441 kts 143°
2026-05-04 06:22 47.58458 12.59386 37062 ft 442 kts 139°
2026-05-04 06:25 47.27140 13.02920 37073 ft 441 kts 140°
2026-05-04 06:26 47.22648 13.09067 37065 ft 441 kts 140°
2026-05-04 06:26 47.18148 13.15211 37083 ft 441 kts 140°
2026-05-04 06:27 47.06907 13.30477 37082 ft 442 kts 139°
2026-05-04 06:28 47.02384 13.36585 37078 ft 443 kts 139°
2026-05-04 06:28 46.97854 13.42700 37089 ft 443 kts 139°
2026-05-04 06:29 46.93317 13.48824 37087 ft 443 kts 139°
2026-05-04 06:29 46.88781 13.54923 37098 ft 443 kts 140°
2026-05-04 06:30 46.84234 13.61003 37096 ft 443 kts 140°
2026-05-04 06:30 46.79674 13.67087 37095 ft 444 kts 140°
2026-05-04 06:31 46.75148 13.73121 37085 ft 444 kts 140°
2026-05-04 06:31 46.70577 13.79209 37089 ft 445 kts 140°
2026-05-04 06:33 46.52223 14.03481 37104 ft 446 kts 140°
2026-05-04 06:34 46.47614 14.09537 37117 ft 447 kts 140°
2026-05-04 06:34 46.43031 14.15542 37120 ft 447 kts 140°
2026-05-04 06:36 46.24511 14.39681 37122 ft 449 kts 140°
2026-05-04 06:37 46.19861 14.45707 37126 ft 449 kts 140°
2026-05-04 06:37 46.15211 14.51728 37130 ft 449 kts 140°
2026-05-04 06:38 46.10582 14.57707 37127 ft 450 kts 140°
2026-05-04 06:40 45.91853 14.81708 37123 ft 451 kts 140°
2026-05-04 06:40 45.87154 14.87689 37122 ft 451 kts 140°
2026-05-04 06:41 45.82451 14.93663 37125 ft 452 kts 140°
2026-05-04 06:41 45.77742 14.99640 37127 ft 452 kts 140°
2026-05-04 06:42 45.73037 15.05600 37125 ft 452 kts 140°
2026-05-04 06:44 45.54160 15.29352 37127 ft 453 kts 140°
2026-05-04 06:44 45.49419 15.35277 37121 ft 453 kts 140°
2026-05-04 06:45 45.44670 15.41211 37125 ft 454 kts 140°
2026-05-04 06:45 45.39917 15.47136 37128 ft 454 kts 141°
2026-05-04 06:46 45.35186 15.53007 37126 ft 454 kts 141°
2026-05-04 06:46 45.30419 15.58907 37130 ft 454 kts 141°
2026-05-04 06:48 45.11274 15.82514 37123 ft 456 kts 141°
2026-05-04 06:50 44.92040 16.05985 37121 ft 459 kts 141°
2026-05-04 06:51 44.87198 16.11866 37128 ft 459 kts 141°
2026-05-04 06:51 44.83136 16.16775 37143 ft 459 kts 140°
2026-05-04 06:52 44.78310 16.22597 37133 ft 460 kts 141°
2026-05-04 06:52 44.73451 16.28458 37133 ft 460 kts 141°
2026-05-04 06:53 44.68582 16.34326 37137 ft 461 kts 141°
2026-05-04 06:53 44.63706 16.40182 37146 ft 461 kts 141°
2026-05-04 06:54 44.58819 16.46024 37151 ft 461 kts 140°
2026-05-04 06:54 44.53937 16.51860 37140 ft 462 kts 141°
2026-05-04 06:55 44.49042 16.57696 37138 ft 462 kts 141°
2026-05-04 06:55 44.44134 16.63534 37146 ft 463 kts 141°
2026-05-04 06:57 44.24468 16.86777 37159 ft 464 kts 141°
2026-05-04 06:58 44.19526 16.92588 37162 ft 465 kts 140°
2026-05-04 06:58 44.14585 16.98395 37177 ft 465 kts 140°
2026-05-04 06:59 44.09634 17.04198 37164 ft 465 kts 140°
2026-05-04 06:59 44.04678 17.09981 37159 ft 465 kts 140°
2026-05-04 07:01 43.84797 17.33072 37168 ft 467 kts 140°
2026-05-04 07:02 43.79797 17.38845 37165 ft 468 kts 140°
2026-05-04 07:02 43.74793 17.44622 37169 ft 468 kts 140°
2026-05-04 07:03 43.69781 17.50379 37188 ft 468 kts 140°
2026-05-04 07:03 43.64794 17.56085 37185 ft 468 kts 140°
2026-05-04 07:04 43.59772 17.61828 37173 ft 469 kts 140°
2026-05-04 07:04 43.54749 17.67567 37172 ft 469 kts 140°
2026-05-04 07:05 43.49715 17.73317 37170 ft 470 kts 140°
2026-05-04 07:05 43.44672 17.79057 37191 ft 470 kts 140°
2026-05-04 07:06 43.37103 17.87640 37192 ft 470 kts 140°
2026-05-04 07:07 43.32055 17.93354 37189 ft 470 kts 140°
2026-05-04 07:09 43.11831 18.16083 37169 ft 471 kts 140°
2026-05-04 07:09 43.06751 18.21751 37169 ft 472 kts 140°
2026-05-04 07:10 43.01666 18.27426 37168 ft 472 kts 140°
2026-05-04 07:12 42.81267 18.50063 37177 ft 473 kts 140°
2026-05-04 07:12 42.76188 18.55653 37171 ft 473 kts 140°
2026-05-04 07:13 42.71076 18.61301 37176 ft 473 kts 140°
2026-05-04 07:13 42.65963 18.66930 37159 ft 473 kts 140°
2026-05-04 07:14 42.53117 18.80959 37183 ft 474 kts 140°
2026-05-04 07:15 42.47973 18.86564 37185 ft 474 kts 140°
2026-05-04 07:15 42.42837 18.92162 37181 ft 474 kts 140°
2026-05-04 07:16 42.37723 18.97717 37173 ft 475 kts 140°
2026-05-04 07:16 42.32561 19.03304 37177 ft 475 kts 140°
2026-05-04 07:17 42.27390 19.08885 37181 ft 475 kts 140°
2026-05-04 07:17 42.22219 19.14462 37201 ft 475 kts 140°
2026-05-04 07:18 42.17042 19.20035 37175 ft 476 kts 140°
2026-05-04 07:18 42.11897 19.25562 37173 ft 476 kts 140°
2026-05-04 07:19 42.06707 19.31134 37176 ft 477 kts 140°
2026-05-04 07:19 42.01512 19.36690 37176 ft 476 kts 140°
2026-05-04 07:20 41.96314 19.42232 37179 ft 477 kts 140°
2026-05-04 07:20 41.91109 19.47784 37197 ft 477 kts 140°
2026-05-04 07:22 41.70250 19.69855 37178 ft 479 kts 140°
2026-05-04 07:23 41.65011 19.75380 37176 ft 479 kts 140°
2026-05-04 07:23 41.59762 19.80900 37205 ft 480 kts 140°
2026-05-04 07:24 41.54507 19.86415 37186 ft 481 kts 140°
2026-05-04 07:24 41.49239 19.91924 37177 ft 481 kts 140°
2026-05-04 07:26 41.28131 20.13892 37217 ft 483 kts 140°
2026-05-04 07:27 41.22831 20.19387 37204 ft 483 kts 140°
2026-05-04 07:27 41.17523 20.24870 37185 ft 483 kts 140°
2026-05-04 07:28 41.12207 20.30341 37184 ft 484 kts 140°
2026-05-04 07:28 41.06890 20.35814 37185 ft 484 kts 140°
2026-05-04 07:29 41.01609 20.41245 37185 ft 484 kts 140°
2026-05-04 07:29 40.96284 20.46708 37181 ft 484 kts 141°
2026-05-04 07:30 40.90948 20.52161 37210 ft 484 kts 140°
2026-05-04 07:30 40.85604 20.57613 37201 ft 485 kts 140°
2026-05-04 07:31 40.80269 20.63048 37199 ft 485 kts 140°
2026-05-04 07:33 40.58882 20.84706 37204 ft 486 kts 140°
2026-05-04 07:33 40.53511 20.90124 37197 ft 487 kts 141°
2026-05-04 07:34 40.48144 20.95552 37188 ft 486 kts 137°
2026-05-04 07:34 40.43156 21.01537 37170 ft 485 kts 135°
2026-05-04 07:35 40.38192 21.07542 37166 ft 486 kts 135°
2026-05-04 07:35 40.33215 21.13542 37170 ft 486 kts 135°
2026-05-04 07:36 40.28234 21.19544 37195 ft 486 kts 135°
2026-05-04 07:38 40.08325 21.43365 37187 ft 486 kts 135°
2026-05-04 07:38 40.03331 21.49320 37183 ft 486 kts 135°
2026-05-04 07:39 39.99176 21.54264 37181 ft 486 kts 135°
2026-05-04 07:39 39.94166 21.60207 37185 ft 486 kts 135°
2026-05-04 07:40 39.89156 21.66137 37181 ft 487 kts 136°
2026-05-04 07:40 39.84139 21.72069 37177 ft 488 kts 136°
2026-05-04 07:41 39.79111 21.77992 37175 ft 488 kts 136°
2026-05-04 07:41 39.74072 21.83919 37209 ft 488 kts 135°
2026-05-04 07:42 39.69038 21.89844 37203 ft 488 kts 135°
2026-05-04 07:42 39.64000 21.95745 37189 ft 488 kts 136°
2026-05-04 07:43 39.58988 22.01599 37185 ft 488 kts 136°
2026-05-04 07:43 39.53942 22.07482 37187 ft 488 kts 136°
2026-05-04 07:44 39.48888 22.13367 37208 ft 488 kts 136°
2026-05-04 07:44 39.43837 22.19249 37203 ft 488 kts 136°
2026-05-04 07:45 39.38780 22.25123 37198 ft 488 kts 136°
2026-05-04 07:45 39.33711 22.30977 37194 ft 489 kts 136°
2026-05-04 07:46 39.28644 22.36830 37187 ft 489 kts 136°
2026-05-04 07:46 39.23571 22.42688 37184 ft 489 kts 136°
2026-05-04 07:47 39.18520 22.48501 37213 ft 489 kts 136°
2026-05-04 07:49 38.98160 22.71803 37175 ft 490 kts 136°
2026-05-04 07:49 38.93062 22.77619 37175 ft 490 kts 136°
2026-05-04 07:50 38.87952 22.83432 37200 ft 490 kts 136°
2026-05-04 07:50 38.82879 22.89188 37196 ft 489 kts 136°
2026-05-04 07:51 38.77781 22.94964 37180 ft 489 kts 137°
2026-05-04 07:51 38.72670 23.00732 37178 ft 490 kts 137°
2026-05-04 07:52 38.67551 23.06495 37176 ft 490 kts 137°
2026-05-04 07:52 38.62435 23.12251 37195 ft 490 kts 137°
2026-05-04 07:54 38.41946 23.35210 37166 ft 491 kts 137°
2026-05-04 07:55 38.36805 23.40948 37164 ft 491 kts 137°
2026-05-04 07:55 38.31656 23.46679 37191 ft 491 kts 137°
2026-05-04 07:56 38.26503 23.52390 37184 ft 491 kts 137°
2026-05-04 07:56 38.21352 23.58098 37182 ft 490 kts 138°
2026-05-04 07:57 38.16202 23.63803 37175 ft 490 kts 138°
2026-05-04 07:57 38.11057 23.69476 37165 ft 490 kts 138°
2026-05-04 07:58 38.05900 23.75146 37202 ft 490 kts 137°
2026-05-04 07:58 38.00783 23.80771 37194 ft 490 kts 137°
2026-05-04 07:59 37.95621 23.86432 37192 ft 489 kts 138°
2026-05-04 07:59 37.90465 23.92081 37189 ft 490 kts 139°
2026-05-04 08:00 37.85310 23.97723 37189 ft 490 kts 139°
2026-05-04 08:02 37.64664 24.20183 37165 ft 490 kts 139°
2026-05-04 08:02 37.59482 24.25785 37164 ft 490 kts 139°
2026-05-04 08:03 37.54134 24.31122 37158 ft 490 kts 149°
2026-05-04 08:03 37.48358 24.35671 37164 ft 490 kts 149°
2026-05-04 08:04 37.42601 24.40194 37191 ft 490 kts 149°
2026-05-04 08:04 37.36813 24.44727 37166 ft 490 kts 149°
2026-05-04 08:05 37.31017 24.49253 37162 ft 490 kts 149°
2026-05-04 08:05 37.25218 24.53784 37163 ft 491 kts 149°
2026-05-04 08:06 37.19413 24.58309 37163 ft 491 kts 149°
2026-05-04 08:06 37.13639 24.62799 37150 ft 491 kts 150°
2026-05-04 08:08 36.93164 24.78681 36016 ft 506 kts 150°
2026-05-04 08:08 36.90129 24.81019 35023 ft 516 kts 150°
2026-05-04 08:10 36.66937 24.98943 29136 ft 443 kts 150°
2026-05-04 08:11 36.64343 25.00931 28723 ft 430 kts 150°
2026-05-04 08:11 36.59318 25.04766 27855 ft 421 kts 150°
2026-05-04 08:11 36.56829 25.06666 27437 ft 419 kts 150°
2026-05-04 08:12 36.54386 25.08535 27008 ft 417 kts 150°
2026-05-04 08:12 36.51909 25.10431 26573 ft 416 kts 150°
2026-05-04 08:12 36.49446 25.12316 26124 ft 415 kts 150°
2026-05-04 08:12 36.46985 25.14197 25674 ft 414 kts 150°
2026-05-04 08:13 36.44525 25.16070 25215 ft 414 kts 150°
2026-05-04 08:13 36.42067 25.17935 24738 ft 414 kts 150°
2026-05-04 08:13 36.39611 25.19800 24266 ft 414 kts 150°
2026-05-04 08:13 36.37151 25.21669 23779 ft 415 kts 150°
2026-05-04 08:14 36.34690 25.23537 23234 ft 414 kts 150°
2026-05-04 08:14 36.32238 25.25397 22764 ft 411 kts 150°
2026-05-04 08:14 36.29805 25.27247 22293 ft 410 kts 150°
2026-05-04 08:16 36.13027 25.39917 19166 ft 396 kts 153°
2026-05-04 08:16 36.10509 25.41240 18729 ft 392 kts 164°
2026-05-04 08:16 36.07937 25.42253 18426 ft 384 kts 164°
2026-05-04 08:17 36.05419 25.43259 17751 ft 376 kts 164°
2026-05-04 08:17 36.02976 25.44247 17364 ft 362 kts 164°
2026-05-04 08:17 36.00623 25.45203 16980 ft 350 kts 164°
2026-05-04 08:17 35.98350 25.46127 16602 ft 339 kts 164°
2026-05-04 08:19 35.83171 25.52214 14111 ft 330 kts 163°
2026-05-04 08:19 35.80987 25.53086 13710 ft 330 kts 164°
2026-05-04 08:20 35.78804 25.53960 13349 ft 329 kts 164°
2026-05-04 08:20 35.76628 25.54832 12983 ft 328 kts 163°
2026-05-04 08:20 35.74461 25.55700 12614 ft 327 kts 163°
2026-05-04 08:20 35.72295 25.56565 12238 ft 327 kts 163°
2026-05-04 08:21 35.70156 25.57509 11855 ft 327 kts 156°
2026-05-04 08:21 35.68209 25.58931 11482 ft 326 kts 142°
2026-05-04 08:21 35.66440 25.60674 11098 ft 325 kts 140°
2026-05-04 08:21 35.64676 25.62418 10705 ft 325 kts 140°
2026-05-04 08:22 35.62938 25.64136 10322 ft 325 kts 140°
2026-05-04 08:22 35.61031 25.65589 9994 ft 320 kts 163°
2026-05-04 08:24 35.48083 25.58773 6881 ft 282 kts 228°
2026-05-04 08:24 35.46745 25.57038 6292 ft 279 kts 233°
2026-05-04 08:24 35.45436 25.55282 5733 ft 278 kts 232°
2026-05-04 08:24 35.44138 25.53543 5197 ft 276 kts 233°
2026-05-04 08:25 35.42851 25.51819 4702 ft 272 kts 232°
2026-05-04 08:25 35.41586 25.50127 4262 ft 266 kts 233°
2026-05-04 08:25 35.40366 25.48495 3835 ft 261 kts 233°
2026-05-04 08:25 35.39151 25.46871 3423 ft 256 kts 233°
2026-05-04 08:26 35.37969 25.45292 3161 ft 243 kts 233°
2026-05-04 08:27 35.33068 25.35762 2644 ft 153 kts 279°
2026-05-04 08:28 35.33074 25.34484 2552 ft 147 kts 275°
2026-05-04 08:28 35.33026 25.33261 2466 ft 138 kts 275°
2026-05-04 08:28 35.32995 25.32132 2461 ft 130 kts 279°
2026-05-04 08:28 35.33054 25.31035 2273 ft 129 kts 284°
2026-05-04 08:29 35.33145 25.29937 2032 ft 129 kts 283°
2026-05-04 08:29 35.33199 25.29214 1912 ft 129 kts 284°
2026-05-04 08:29 35.33273 25.28124 1725 ft 128 kts 283°
2026-05-04 08:31 35.33774 25.20584 405 ft 125 kts 285°
2026-05-04 08:33 35.33950 25.17050 90 ft 6 kts 150°
2026-05-04 08:33 35.33940 25.17097 91 ft 5 kts 95°
2026-05-04 08:35 35.33915 25.17441 91 ft 11 kts 95°
2026-05-04 08:35 35.33909 25.17530 94 ft 10 kts 95°
2026-05-04 08:35 35.33898 25.17609 91 ft 9 kts 121°
2026-05-04 08:35 35.33851 25.17612 92 ft 7 kts 225°
2026-05-04 08:37 35.33871 25.17545 91 ft 0 kts 315°